Flight Track Log - Related Links

Times and Time Zones

All times are in EST time to prevent confusion due to time zone crossing. See the AFL150 flight status page for this flight to view local times or setup timezone preferences in your user account.

Time Position Orientation Groundspeed Altitude Reporting Facility
EST Latitude Longitude Course Direction KTS MPH feet Rate Location/Type
Mon 04:52:00 AM 56.2422 37.0096 318° Northwest  Level FlightAware Approximate
Mon 04:53:00 AM 56.3285 36.8660 317° Northwest  Level FlightAware Approximate
Mon 04:54:00 AM 56.4146 36.7218 317° Northwest  Level FlightAware Approximate
Mon 04:55:00 AM 56.5006 36.5769 317° Northwest  Level FlightAware Approximate
Mon 04:56:00 AM 56.5863 36.4313 317° Northwest  Level FlightAware Approximate
Mon 04:57:00 AM 56.6720 36.2851 317° Northwest  Level FlightAware Approximate
Mon 04:58:00 AM 56.7574 36.1382 317° Northwest  Level FlightAware Approximate
Mon 04:59:00 AM 56.8427 35.9907 317° Northwest  Level FlightAware Approximate
Mon 05:00:00 AM 56.9278 35.8425 316° Northwest  Level FlightAware Approximate
Mon 05:01:00 AM 57.0127 35.6936 316° Northwest  Level FlightAware Approximate
Mon 05:02:00 AM 57.0975 35.5440 316° Northwest  Level FlightAware Approximate
Mon 05:03:00 AM 57.1820 35.3937 316° Northwest  Level FlightAware Approximate
Mon 05:04:00 AM 57.2664 35.2428 316° Northwest  Level FlightAware Approximate
Mon 05:05:00 AM 57.3506 35.0911 316° Northwest  Level FlightAware Approximate
Mon 05:06:00 AM 57.4347 34.9388 316° Northwest  Level FlightAware Approximate
Mon 05:07:00 AM 57.5185 34.7857 316° Northwest  Level FlightAware Approximate
Mon 05:08:00 AM 57.6021 34.6320 315° West  Level FlightAware Approximate
Mon 05:09:00 AM 57.6283 34.5789 314° West  Level FlightAware Approximate
Mon 05:10:00 AM 57.7093 34.4199 314° West  Level FlightAware Approximate
Mon 05:11:00 AM 57.7902 34.2601 314° West  Level FlightAware Approximate
Mon 05:12:00 AM 57.8708 34.0997 313° West  Level FlightAware Approximate
Mon 05:13:00 AM 57.9512 33.9385 313° West  Level FlightAware Approximate
Mon 05:14:00 AM 58.0315 33.7766 313° West  Level FlightAware Approximate
Mon 05:15:00 AM 58.1115 33.6140 313° West  Level FlightAware Approximate
Mon 05:16:00 AM 58.1913 33.4507 313° West  Level FlightAware Approximate
Mon 05:17:00 AM 58.2709 33.2866 313° West  Level FlightAware Approximate
Mon 05:18:00 AM 58.3503 33.1218 313° West  Level FlightAware Approximate
Mon 05:19:00 AM 58.4295 32.9562 312° West  Level FlightAware Approximate
Mon 05:20:00 AM 58.5084 32.7899 312° West  Level FlightAware Approximate
Mon 05:20:18 AM 56.4058 32.8615 279° West 449 517 34,000  Level FlightAware ADS-B
Mon 05:21:00 AM 58.5872 32.6228 312° West  Level FlightAware Approximate
Mon 05:22:00 AM 56.5146 32.5584 303° West  Level Estimated
Mon 05:23:00 AM 56.5782 32.3793 303° West  Level Estimated
Mon 05:23:14 AM 56.5217 31.4861 278° West 454 522 34,000  Level FlightAware ADS-B
Mon 05:24:12 AM 56.5419 31.2650 284° West 453 521 34,000  Level FlightAware ADS-B
Mon 05:25:14 AM 56.5851 31.0491 296° West 452 520 34,000  Level FlightAware ADS-B
Mon 05:26:13 AM 56.6503 30.8605 308° West 454 522 34,000  Level FlightAware ADS-B
Mon 05:27:13 AM 56.7308 30.6831 305° West 456 525 34,000  Level FlightAware ADS-B
Mon 05:28:14 AM 56.7987 30.5025 305° West 456 525 34,000  Level FlightAware ADS-B
Mon 05:29:15 AM 56.8742 30.3000 304° West 455 524 34,000  Level FlightAware ADS-B
Mon 05:30:15 AM 56.9450 30.1071 304° West 455 524 34,000  Level FlightAware ADS-B
Mon 05:31:13 AM 57.0132 29.9195 304° West 452 520 34,000  Level FlightAware ADS-B
Mon 05:32:14 AM 57.0833 29.7254 303° West 449 517 34,000  Level FlightAware ADS-B
Mon 05:33:14 AM 57.1514 29.5354 303° West 446 513 34,000  Level FlightAware ADS-B
Mon 05:34:15 AM 57.2190 29.3449 303° West 445 512 34,000  Level FlightAware ADS-B
Mon 05:35:15 AM 57.2864 29.1540 303° West 447 514 34,000  Level FlightAware ADS-B
Mon 05:36:14 AM 57.3539 28.9617 303° West 449 517 34,000  Level FlightAware ADS-B
Mon 05:37:14 AM 57.4209 28.7684 303° West 448 516 34,000  Level FlightAware ADS-B
Mon 05:38:14 AM 57.4881 28.5736 303° West 447 514 34,000  Level FlightAware ADS-B
Mon 05:39:15 AM 57.5472 28.4007 302° West 445 512 34,000  Level FlightAware ADS-B
Mon 05:40:14 AM 57.6199 28.1867 302° West 448 516 34,000  Level FlightAware ADS-B
Mon 05:41:14 AM 57.6771 28.0171 302° West 447 514 34,000  Level FlightAware ADS-B
Mon 05:42:15 AM 57.7503 27.7978 302° West 448 516 34,000  Level FlightAware ADS-B
Mon 05:42:55 AM 57.7965 27.6587 302° West 447 514 34,000  Level FlightAware ADS-B
Mon 05:43:56 AM 57.8515 27.4588 290° West 446 513 34,000  Level FlightAware ADS-B
Mon 05:44:56 AM 57.8960 27.2375 291° West 447 514 34,000  Level FlightAware ADS-B
Mon 05:45:56 AM 57.9385 27.0264 291° West 447 514 34,000  Level FlightAware ADS-B
Mon 05:46:56 AM 57.9835 26.8007 290° West 445 512 34,000  Level FlightAware ADS-B
Mon 05:47:56 AM 58.0266 26.5814 290° West 444 511 34,000  Level FlightAware ADS-B
Mon 05:48:56 AM 58.0687 26.3652 290° West 446 513 34,000  Level FlightAware ADS-B
Mon 05:50:04 AM 58.1168 26.1151 290° West 445 512 34,000  Level FlightAware ADS-B
Mon 05:51:04 AM 58.1580 25.8985 290° West 445 512 34,000  Level FlightAware ADS-B
Mon 05:52:04 AM 58.1998 25.6758 290° West 443 510 34,000  Level FlightAware ADS-B
Mon 05:53:04 AM 58.2403 25.4586 289° West 442 509 34,000  Level FlightAware ADS-B
Mon 05:54:06 AM 58.2810 25.2363 289° West 442 509 34,000  Level FlightAware ADS-B
Mon 05:55:08 AM 58.3212 25.0151 289° West 442 509 34,000  Level FlightAware ADS-B
Mon 05:56:11 AM 58.3373 24.9251 289° West 442 509 34,000  Level FlightAware ADS-B
Mon 05:57:52 AM 58.4299 24.3991 287° West 442 509 34,000 107 Level FlightAware ADS-B
Mon 06:12:06 AM 58.8899 21.2203 288° West 436 502 35,700 128 Climbing FlightAware ADS-B
Mon 06:13:30 AM 58.9412 20.9093 288° West 441 507 36,000 120 Climbing FlightAware ADS-B
Mon 06:14:36 AM 58.9783 20.6812 287° West 438 504 36,000  Level FlightAware ADS-B
Mon 06:15:16 AM 59.0057 20.5107 287° West 438 504 36,000  Level FlightAware ADS-B
Mon 06:15:59 AM 59.0310 20.3524 287° West 437 503 36,000  Level FlightAware ADS-B
Mon 06:16:38 AM 59.0548 20.2013 287° West 434 499 36,000  Level FlightAware ADS-B
Mon 06:17:20 AM 59.0788 20.0484 287° West 433 498 36,000  Level FlightAware ADS-B
Mon 06:18:00 AM 59.1012 19.9033 287° West 432 497 36,000  Level FlightAware ADS-B
Mon 06:18:41 AM 59.1254 19.7452 287° West 432 497 36,000  Level FlightAware ADS-B
Mon 06:19:21 AM 59.1476 19.5993 286° West 432 497 36,000  Level FlightAware ADS-B
Mon 06:20:01 AM 59.1703 19.4484 286° West 432 497 36,000  Level FlightAware ADS-B
Mon 06:20:41 AM 59.1921 19.3041 286° West 430 495 36,000  Level FlightAware ADS-B
Mon 06:21:21 AM 59.2139 19.1569 286° West 429 494 36,000  Level FlightAware ADS-B
Mon 06:22:01 AM 59.2351 19.0129 286° West 430 495 36,000  Level FlightAware ADS-B
Mon 06:22:41 AM 59.2570 18.8617 286° West 429 494 36,000  Level FlightAware ADS-B
Mon 06:23:20 AM 59.2781 18.7155 286° West 430 495 36,000  Level FlightAware ADS-B
Mon 06:24:01 AM 59.3001 18.5622 286° West 429 494 36,000  Level FlightAware ADS-B
Mon 06:24:41 AM 59.3218 18.4080 285° West 429 494 36,000  Level FlightAware ADS-B
Mon 06:25:22 AM 59.3420 18.2646 285° West 429 494 36,000  Level FlightAware ADS-B
Mon 06:26:04 AM 59.3636 18.1089 285° West 430 495 36,000  Level FlightAware ADS-B
Mon 06:26:41 AM 59.3833 17.9652 285° West 431 496 36,000  Level FlightAware ADS-B
Mon 06:27:23 AM 59.4053 17.8044 285° West 431 496 36,000  Level FlightAware ADS-B
Mon 06:28:01 AM 59.4242 17.6642 285° West 431 496 36,000  Level FlightAware ADS-B
Mon 06:28:42 AM 59.4455 17.5062 285° West 430 495 36,000  Level FlightAware ADS-B
Mon 06:29:19 AM 59.4637 17.3678 284° West 431 496 36,000  Level FlightAware ADS-B
Mon 06:30:03 AM 59.4854 17.2021 284° West 429 494 36,000  Level FlightAware ADS-B
Mon 06:30:43 AM 59.5041 17.0580 284° West 430 495 36,000  Level FlightAware ADS-B
Mon 06:31:23 AM 59.5248 16.8960 284° West 430 495 36,000  Level FlightAware ADS-B
Mon 06:32:03 AM 59.5439 16.7465 284° West 431 496 36,000  Level FlightAware ADS-B
Mon 06:32:17 AM 59.5515 16.6866 283° West 428 493 36,000  Level FlightAware ADS-B
Mon 06:32:40 AM 59.5622 16.6010 283° West 428 493 36,000  Level FlightAware ADS-B
Mon 06:33:03 AM 59.5737 16.5094 283° West 429 494 36,000  Level FlightAware ADS-B
Mon 06:33:36 AM 59.5893 16.3830 284° West 431 496 36,000  Level FlightAware ADS-B
Mon 06:34:20 AM 59.6097 16.2169 284° West 432 497 36,000  Level FlightAware ADS-B
Mon 06:35:04 AM 59.6288 16.0588 283° West 433 498 36,000  Level FlightAware ADS-B
Mon 06:35:40 AM 59.6464 15.9130 283° West 434 499 36,000  Level FlightAware ADS-B
Mon 06:36:21 AM 59.6646 15.7594 283° West 434 499 36,000  Level FlightAware ADS-B
Mon 06:36:53 AM 59.6798 15.6299 283° West 436 502 36,000  Level FlightAware ADS-B
Mon 06:37:24 AM 59.6942 15.5068 283° West 436 502 36,000  Level FlightAware ADS-B
Mon 06:37:54 AM 59.7073 15.3929 283° West 435 501 36,000  Level FlightAware ADS-B
Mon 06:38:25 AM 59.7207 15.2759 283° West 435 501 36,000  Level FlightAware ADS-B
Mon 06:38:55 AM 59.7338 15.1604 283° West 435 501 36,000  Level FlightAware ADS-B
Mon 06:39:40 AM 59.7538 14.9817 281° West 433 498 36,000  Level FlightAware ADS-B
Mon 06:40:12 AM 59.7676 14.8580 281° West 434 499 36,000  Level FlightAware ADS-B
Mon 06:40:44 AM 59.7811 14.7350 281° West 435 501 36,000  Level FlightAware ADS-B
Mon 06:41:14 AM 59.7940 14.6167 281° West 435 501 36,000  Level FlightAware ADS-B
Mon 06:41:44 AM 59.8062 14.5031 281° West 435 501 36,000  Level FlightAware ADS-B
Mon 06:42:14 AM 59.8191 14.3833 281° West 435 501 36,000  Level FlightAware ADS-B
Mon 06:42:44 AM 59.8316 14.2650 281° West 435 501 36,000  Level FlightAware ADS-B
Mon 06:43:16 AM 59.8451 14.1367 281° West 433 498 36,000  Level FlightAware ADS-B
Mon 06:43:54 AM 59.8599 13.9942 281° West 433 498 36,000  Level FlightAware ADS-B
Mon 06:44:34 AM 59.8763 13.8341 281° West 434 499 36,000  Level FlightAware ADS-B
Mon 06:45:05 AM 59.8886 13.7128 281° West 437 503 36,000  Level FlightAware ADS-B
Mon 06:45:50 AM 59.9060 13.5401 281° West 437 503 36,000  Level FlightAware ADS-B
Mon 06:46:20 AM 59.9180 13.4183 281° West 437 503 36,000  Level FlightAware ADS-B
Mon 06:46:57 AM 59.9318 13.2780 281° West 436 502 36,000  Level FlightAware ADS-B
Mon 06:47:29 AM 59.9439 13.1532 281° West 435 501 36,000  Level FlightAware ADS-B
Mon 06:48:02 AM 59.9570 13.0173 281° West 434 499 36,000  Level FlightAware ADS-B
Mon 06:48:34 AM 59.9691 12.8896 281° West 433 498 36,000  Level FlightAware ADS-B
Mon 06:49:13 AM 59.9828 12.7428 281° West 435 501 36,000  Level FlightAware ADS-B
Mon 06:49:50 AM 59.9961 12.5948 279° West 433 498 36,000  Level FlightAware ADS-B
Mon 06:50:25 AM 60.0073 12.4610 278° West 432 497 36,000  Level FlightAware ADS-B
Mon 06:51:21 AM 60.0199 12.2346 275° West 431 496 36,000  Level FlightAware ADS-B
Mon 06:51:51 AM 60.0251 12.1142 275° West 430 495 36,000  Level FlightAware ADS-B
Mon 06:52:40 AM 60.0335 11.9207 275° West 431 496 36,000  Level FlightAware ADS-B
Mon 06:53:12 AM 60.0385 11.7985 275° West 430 495 36,000  Level FlightAware ADS-B
Mon 06:53:46 AM 60.0438 11.6649 274° West 428 493 36,000  Level FlightAware ADS-B
Mon 06:54:17 AM 60.0488 11.5416 275° West 428 493 36,000  Level FlightAware ADS-B
Mon 06:54:50 AM 60.0538 11.4115 274° West 428 493 36,000  Level FlightAware ADS-B
Mon 06:55:20 AM 60.0581 11.2953 274° West 430 495 36,000  Level FlightAware ADS-B
Mon 06:55:55 AM 60.0631 11.1569 273° West 430 495 36,000  Level FlightAware ADS-B
Mon 06:57:14 AM 60.0741 10.8397 273° West 432 497 36,000  Level FlightAware ADS-B
Mon 06:58:51 AM 60.0863 10.4567 273° West 430 495 36,000  Level FlightAware ADS-B
Mon 06:59:25 AM 60.0905 10.3182 272° West 428 493 36,000  Level FlightAware ADS-B
Mon 07:24:15 AM 60.1279 4.1949 279° West 456 525 36,000  Level FlightAware UK
Mon 07:24:57 AM 60.1256 4.0176 269° West 456 525 36,000  Level FlightAware UK
Mon 07:25:33 AM 60.1228 3.8666 268° West 456 525 36,000  Level FlightAware UK
Mon 07:26:03 AM 60.1206 3.7394 268° West 454 522 36,000  Level FlightAware UK
Mon 07:26:39 AM 60.1177 3.5889 268° West 454 522 36,000  Level FlightAware UK
Mon 07:27:09 AM 60.1137 3.4631 266° West 454 522 36,000  Level FlightAware UK
Mon 07:27:39 AM 60.1108 3.3374 267° West 454 522 36,000  Level FlightAware UK
Mon 07:28:09 AM 60.1095 3.2117 269° West 454 522 36,000  Level FlightAware UK
Mon 07:28:44 AM 60.1058 3.0617 267° West 456 525 36,000  Level FlightAware UK
Mon 07:29:20 AM 60.1021 2.9103 267° West 456 525 36,000  Level FlightAware UK
Mon 07:30:38 AM 60.0919 2.5827 267° West 456 525 36,000  Level FlightAware UK
Mon 07:31:08 AM 60.0884 2.4562 267° West 456 525 36,000  Level FlightAware UK
Mon 07:31:56 AM 60.0826 2.2547 267° West 458 527 36,000  Level FlightAware UK
Mon 07:32:02 AM 60.0814 2.2324 267° West 458 527 36,000  Level FlightAware ADS-B
Mon 07:32:44 AM 60.0757 2.0526 267° West 458 527 36,000  Level FlightAware UK
Mon 07:33:20 AM 60.0697 1.9007 266° West 460 529 36,000  Level FlightAware UK
Mon 07:33:25 AM 60.0697 1.8807 266° West 461 531 36,000  Level FlightAware ADS-B
Mon 07:34:25 AM 60.0606 1.6260 266° West 463 533 36,000  Level FlightAware ADS-B
Mon 07:34:56 AM 60.0553 1.4933 266° West 464 534 36,000  Level FlightAware UK
Mon 07:35:25 AM 60.0512 1.3727 266° West 465 535 36,000  Level FlightAware ADS-B
Mon 07:36:13 AM 60.0428 1.1603 266° West 466 536 36,000  Level FlightAware UK
Mon 07:36:25 AM 60.0412 1.1162 266° West 467 537 36,000  Level FlightAware ADS-B
Mon 07:37:25 AM 60.0499 0.8530 266° West 474 545 36,000  Level FlightAware UK
Mon 07:37:37 AM 60.0557 0.8065 284° West 475 547 36,000  Level FlightAware ADS-B
Mon 07:38:07 AM 60.0709 0.6742 284° West 472 543 36,000  Level FlightAware UK
Mon 07:38:38 AM 60.0857 0.5533 282° West 471 542 36,000  Level FlightAware ADS-B
Mon 07:39:38 AM 60.1164 0.2918 282° West 471 542 36,000  Level FlightAware ADS-B
Mon 07:40:19 AM 60.1371 0.1182 282° West 472 543 36,000  Level FlightAware UK
Mon 07:40:55 AM 60.1545 -0.0350 283° West 474 545 36,000  Level FlightAware UK
Mon 07:41:31 AM 60.1720 -0.1885 283° West 476 548 36,000  Level FlightAware UK
Mon 07:41:57 AM 60.1837 -0.3020 282° West 476 548 36,000  Level FlightAware ADS-B
Mon 07:42:54 AM 60.2111 -0.5504 282° West 476 548 36,000  Level FlightAware UK
Mon 07:42:54 AM 60.2104 -0.5471 282° West 477 549 36,000  Level FlightAware ADS-B
Mon 07:43:24 AM 60.2251 -0.6801 282° West 476 548 36,000  Level FlightAware UK
Mon 07:46:13 AM 60.3007 -1.4107 282° West 478 550 36,000  Level FlightAware ADS-B
Mon 07:47:13 AM 60.3269 -1.6726 280° West 477 549 36,000  Level FlightAware ADS-B
Mon 07:48:16 AM 60.3536 -1.9452 280° West 476 548 36,000  Level FlightAware ADS-B
Mon 07:49:15 AM 60.3783 -2.2037 280° West 475 547 36,000  Level FlightAware ADS-B
Mon 07:50:15 AM 60.4025 -2.4628 280° West 474 545 36,000  Level FlightAware ADS-B
Mon 07:51:16 AM 60.4266 -2.7270 280° West 473 544 36,000  Level FlightAware ADS-B
Mon 07:52:16 AM 60.4501 -2.9896 280° West 472 543 36,000  Level FlightAware ADS-B
Mon 07:53:08 AM 60.4696 -3.2129 280° West 470 541 36,000  Level FlightAware ADS-B
Mon 07:55:17 AM 60.5170 -3.7747 279° West 470 541 36,000 11 Level FlightAware ADS-B
Mon 07:57:00 AM 60.5240 -4.1842 272° West  Level Estimated
Mon 07:58:00 AM 60.5275 -4.4229 272° West  Level Estimated
Mon 07:59:00 AM 60.5306 -4.6616 272° West  Level Estimated
Mon 08:00:00 AM 60.5333 -4.9003 271° West  Level Estimated
Mon 08:01:00 AM 60.5355 -5.1391 271° West  Level Estimated
Mon 08:02:00 AM 60.5373 -5.3779 271° West  Level Estimated
Mon 08:03:00 AM 60.5387 -5.6167 271° West  Level Estimated
Mon 08:04:00 AM 60.5397 -5.8555 271° West  Level Estimated
Mon 08:05:00 AM 60.5402 -6.0943 270° West  Level Estimated
Mon 08:06:00 AM 60.5403 -6.3332 270° West  Level Estimated
Mon 08:07:00 AM 60.5400 -6.5721 270° West  Level Estimated
Mon 08:08:00 AM 60.5393 -6.8109 270° West  Level Estimated
Mon 08:09:00 AM 60.5381 -7.0497 270° West  Level Estimated
Mon 08:10:00 AM 60.5365 -7.2885 269° West  Level Estimated
Mon 08:11:00 AM 60.5345 -7.5273 269° West  Level Estimated
Mon 08:12:00 AM 60.5320 -7.7661 269° West  Level Estimated
Mon 08:13:00 AM 60.5291 -8.0048 269° West  Level Estimated
Mon 08:14:00 AM 60.5258 -8.2435 268° West  Level Estimated
Mon 08:15:00 AM 60.5221 -8.4821 268° West  Level Estimated
Mon 08:16:00 AM 60.5180 -8.7206 268° West  Level Estimated
Mon 08:17:00 AM 60.5134 -8.9591 268° West  Level Estimated
Mon 08:18:00 AM 60.5084 -9.1975 268° West  Level Estimated
Mon 08:19:00 AM 60.5029 -9.4359 267° West  Level Estimated
Mon 08:20:00 AM 60.4971 -9.6741 267° West  Level Estimated
Mon 08:21:00 AM 60.4908 -9.9123 267° West  Level Estimated
Mon 08:22:00 AM 60.4841 -10.1504 267° West  Level Estimated
Mon 08:23:00 AM 60.4770 -10.3884 267° West  Level Estimated
Mon 08:24:00 AM 60.4694 -10.6262 266° West  Level Estimated
Mon 08:25:00 AM 60.4615 -10.8640 266° West  Level Estimated
Mon 08:26:00 AM 60.4531 -11.1016 266° West  Level Estimated
Mon 08:27:00 AM 60.4442 -11.3391 266° West  Level Estimated
Mon 08:28:00 AM 60.4350 -11.5765 266° West  Level Estimated
Mon 08:29:00 AM 60.4253 -11.8137 265° West  Level Estimated
Mon 08:30:00 AM 60.4153 -12.0508 265° West  Level Estimated
Mon 08:31:00 AM 60.4048 -12.2878 265° West  Level Estimated
Mon 08:32:00 AM 60.3938 -12.5246 265° West  Level Estimated
Mon 08:33:00 AM 60.3825 -12.7612 265° West  Level Estimated
Mon 08:34:00 AM 60.3707 -12.9976 264° West  Level Estimated
Mon 08:35:00 AM 60.3585 -13.2339 264° West  Level Estimated
Mon 08:36:00 AM 60.3459 -13.4700 264° West  Level Estimated
Mon 08:37:00 AM 60.3329 -13.7059 264° West  Level Estimated
Mon 08:38:00 AM 60.3195 -13.9417 264° West  Level Estimated
Mon 08:39:00 AM 60.3056 -14.1772 263° West  Level Estimated
Mon 08:40:00 AM 60.2913 -14.4125 263° West  Level Estimated
Mon 08:41:00 AM 60.2767 -14.6477 263° West  Level Estimated
Mon 08:42:00 AM 60.2616 -14.8826 263° West  Level Estimated
Mon 08:43:00 AM 60.2460 -15.1173 263° West  Level Estimated
Mon 08:44:00 AM 60.2301 -15.3517 262° West  Level Estimated
Mon 08:45:00 AM 60.2138 -15.5859 262° West  Level Estimated
Mon 08:46:00 AM 60.1970 -15.8199 262° West  Level Estimated
Mon 08:47:00 AM 60.1798 -16.0537 262° West  Level Estimated
Mon 08:48:00 AM 60.1623 -16.2872 261° West  Level Estimated
Mon 08:49:00 AM 60.1443 -16.5205 261° West  Level Estimated
Mon 08:50:00 AM 60.1259 -16.7534 261° West  Level Estimated
Mon 08:51:00 AM 60.1071 -16.9862 261° West  Level Estimated
Mon 08:52:00 AM 60.0878 -17.2186 261° West  Level Estimated
Mon 08:53:00 AM 60.0682 -17.4508 260° West  Level Estimated
Mon 08:54:00 AM 60.0482 -17.6827 260° West  Level Estimated
Mon 08:55:00 AM 60.0278 -17.9144 260° West  Level Estimated
Mon 08:56:00 AM 60.0069 -18.1457 260° West  Level Estimated
Mon 08:57:00 AM 59.9857 -18.3767 260° West  Level Estimated
Mon 08:58:00 AM 59.9640 -18.6075 259° West  Level Estimated
Mon 08:59:00 AM 59.9420 -18.8379 259° West  Level Estimated
Mon 09:00:00 AM 59.9195 -19.0681 259° West  Level Estimated
Mon 09:01:00 AM 59.8967 -19.2979 259° West  Level Estimated
Mon 09:02:00 AM 59.8734 -19.5274 259° West  Level Estimated
Mon 09:03:00 AM 59.8498 -19.7565 258° West  Level Estimated
Mon 09:04:00 AM 59.8257 -19.9854 258° West  Level Estimated
Mon 09:05:00 AM 59.8013 -20.2139 258° West  Level Estimated
Mon 09:06:00 AM 59.7765 -20.4421 258° West  Level Estimated
Mon 09:07:00 AM 59.7512 -20.6699 258° West  Level Estimated
Mon 09:08:00 AM 59.7256 -20.8974 257° West  Level Estimated
Mon 09:09:00 AM 59.6996 -21.1245 257° West  Level Estimated
Mon 09:10:00 AM 59.6732 -21.3513 257° West  Level Estimated
Mon 09:11:00 AM 59.6464 -21.5777 257° West  Level Estimated
Mon 09:12:00 AM 59.6192 -21.8038 257° West  Level Estimated
Mon 09:13:00 AM 59.5916 -22.0295 257° West  Level Estimated
Mon 09:14:00 AM 59.5636 -22.2548 256° West  Level Estimated
Mon 09:15:00 AM 59.5353 -22.4797 256° West  Level Estimated
Mon 09:16:00 AM 59.5065 -22.7043 256° West  Level Estimated
Mon 09:17:00 AM 59.4774 -22.9285 256° West  Level Estimated
Mon 09:18:00 AM 59.4479 -23.1523 256° West  Level Estimated
Mon 09:19:00 AM 59.4180 -23.3757 255° West  Level Estimated
Mon 09:20:00 AM 59.3878 -23.5986 255° West  Level Estimated
Mon 09:21:00 AM 59.3571 -23.8212 255° West  Level Estimated
Mon 09:22:00 AM 59.3261 -24.0434 255° West  Level Estimated
Mon 09:23:00 AM 59.2947 -24.2652 255° West  Level Estimated
Mon 09:24:00 AM 59.2629 -24.4866 254° West  Level Estimated
Mon 09:25:00 AM 59.2308 -24.7076 254° West  Level Estimated
Mon 09:26:00 AM 59.1982 -24.9281 254° West  Level Estimated
Mon 09:27:00 AM 59.1653 -25.1482 254° West  Level Estimated
Mon 09:28:00 AM 59.1320 -25.3679 254° West  Level Estimated
Mon 09:29:00 AM 59.0984 -25.5872 253° West  Level Estimated
Mon 09:30:00 AM 59.0644 -25.8060 253° West  Level Estimated
Mon 09:31:00 AM 59.0300 -26.0244 253° West  Level Estimated
Mon 09:32:00 AM 58.9953 -26.2423 253° West  Level Estimated
Mon 09:33:00 AM 58.9602 -26.4599 253° West  Level Estimated
Mon 09:34:00 AM 58.9247 -26.6769 253° West  Level Estimated
Mon 09:35:00 AM 58.8889 -26.8936 252° West  Level Estimated
Mon 09:36:00 AM 58.8526 -27.1097 252° West  Level Estimated
Mon 09:37:00 AM 58.8161 -27.3254 252° West  Level Estimated
Mon 09:38:00 AM 58.7792 -27.5407 252° West  Level Estimated
Mon 09:39:00 AM 58.7419 -27.7555 252° West  Level Estimated
Mon 09:40:00 AM 58.7043 -27.9698 251° West  Level Estimated
Mon 09:41:00 AM 58.6663 -28.1837 251° West  Level Estimated
Mon 09:42:00 AM 58.6279 -28.3971 251° West  Level Estimated
Mon 09:43:00 AM 58.5892 -28.6101 251° West  Level Estimated
Mon 09:44:00 AM 58.5502 -28.8225 251° West  Level Estimated
Mon 09:45:00 AM 58.5108 -29.0345 250° West  Level Estimated
Mon 09:46:00 AM 58.4710 -29.2460 250° West  Level Estimated
Mon 09:47:00 AM 58.4310 -29.4571 250° West  Level Estimated
Mon 09:48:00 AM 58.3905 -29.6676 250° West  Level Estimated
Mon 09:49:00 AM 58.3497 -29.8777 250° West  Level Estimated
Mon 09:50:00 AM 58.3086 -30.0872 250° West  Level Estimated
Mon 09:51:00 AM 58.2671 -30.2963 249° West  Level Estimated
Mon 09:52:00 AM 58.2253 -30.5049 249° West  Level Estimated
Mon 09:53:00 AM 58.1809 -30.7244 249° West  Level Estimated
Mon 09:54:00 AM 58.1360 -30.9433 249° West  Level Estimated
Mon 09:55:00 AM 58.0908 -31.1617 249° West  Level Estimated
Mon 09:56:00 AM 58.0452 -31.3796 249° West  Level Estimated
Mon 09:57:00 AM 57.9993 -31.5968 248° West  Level Estimated
Mon 09:58:00 AM 57.9529 -31.8135 248° West  Level Estimated
Mon 09:59:00 AM 57.9062 -32.0297 248° West  Level Estimated
Mon 10:00:00 AM 57.8592 -32.2453 248° West  Level Estimated
Mon 10:01:00 AM 57.8118 -32.4603 248° West  Level Estimated
Mon 10:02:00 AM 57.7640 -32.6747 247° West  Level Estimated
Mon 10:03:00 AM 57.7158 -32.8886 247° West  Level Estimated
Mon 10:04:00 AM 57.6673 -33.1019 247° West  Level Estimated
Mon 10:05:00 AM 57.6185 -33.3147 247° West  Level Estimated
Mon 10:06:00 AM 57.5692 -33.5268 247° West  Level Estimated
Mon 10:07:00 AM 57.5196 -33.7384 247° West  Level Estimated
Mon 10:08:00 AM 57.4697 -33.9495 246° West  Level Estimated
Mon 10:09:00 AM 57.4194 -34.1599 246° West  Level Estimated
Mon 10:10:00 AM 57.3688 -34.3697 246° West  Level Estimated
Mon 10:11:00 AM 57.3178 -34.5790 246° West  Level Estimated
Mon 10:12:00 AM 57.2665 -34.7877 246° West  Level Estimated
Mon 10:13:00 AM 57.2148 -34.9958 245° Southwest  Level Estimated
Mon 10:14:00 AM 57.1628 -35.2034 245° Southwest  Level Estimated
Mon 10:15:00 AM 57.1105 -35.4103 245° Southwest  Level Estimated
Mon 10:16:00 AM 57.0578 -35.6167 245° Southwest  Level Estimated
Mon 10:17:00 AM 57.0047 -35.8224 245° Southwest  Level Estimated
Mon 10:18:00 AM 56.9514 -36.0276 245° Southwest  Level Estimated
Mon 10:19:00 AM 56.8977 -36.2322 244° Southwest  Level Estimated
Mon 10:20:00 AM 56.8436 -36.4362 244° Southwest  Level Estimated
Mon 10:21:00 AM 56.7892 -36.6396 244° Southwest  Level Estimated
Mon 10:22:00 AM 56.7345 -36.8425 244° Southwest  Level Estimated
Mon 10:23:00 AM 56.6795 -37.0447 244° Southwest  Level Estimated
Mon 10:24:00 AM 56.6242 -37.2463 244° Southwest  Level Estimated
Mon 10:25:00 AM 56.5685 -37.4474 243° Southwest  Level Estimated
Mon 10:26:00 AM 56.5125 -37.6479 243° Southwest  Level Estimated
Mon 10:27:00 AM 56.4562 -37.8477 243° Southwest  Level Estimated
Mon 10:28:00 AM 56.3995 -38.0470 243° Southwest  Level Estimated
Mon 10:29:00 AM 56.3425 -38.2457 243° Southwest  Level Estimated
Mon 10:30:00 AM 56.2853 -38.4437 243° Southwest  Level Estimated
Mon 10:31:00 AM 56.2277 -38.6412 242° Southwest  Level Estimated
Mon 10:32:00 AM 56.1698 -38.8381 242° Southwest  Level Estimated
Mon 10:33:00 AM 56.1115 -39.0344 242° Southwest  Level Estimated
Mon 10:34:00 AM 56.0530 -39.2301 242° Southwest  Level Estimated
Mon 10:35:00 AM 55.9942 -39.4253 242° Southwest  Level Estimated
Mon 10:36:00 AM 55.9350 -39.6198 242° Southwest  Level Estimated
Mon 10:37:00 AM 55.8756 -39.8137 241° Southwest  Level Estimated
Mon 10:38:00 AM 55.8158 -40.0070 241° Southwest  Level Estimated
Mon 10:39:00 AM 55.7557 -40.1997 241° Southwest  Level Estimated
Mon 10:40:00 AM 55.6954 -40.3919 241° Southwest  Level Estimated
Mon 10:41:00 AM 55.6347 -40.5834 241° Southwest  Level Estimated
Mon 10:42:00 AM 55.5738 -40.7744 241° Southwest  Level Estimated
Mon 10:43:00 AM 55.5125 -40.9647 240° Southwest  Level Estimated
Mon 10:44:00 AM 55.4510 -41.1545 240° Southwest  Level Estimated
Mon 10:45:00 AM 55.3891 -41.3437 240° Southwest  Level Estimated
Mon 10:46:00 AM 55.3270 -41.5322 240° Southwest  Level Estimated
Mon 10:47:00 AM 55.2646 -41.7202 240° Southwest  Level Estimated
Mon 10:48:00 AM 55.2019 -41.9076 240° Southwest  Level Estimated
Mon 10:49:00 AM 55.1389 -42.0945 240° Southwest  Level Estimated
Mon 10:50:00 AM 55.0756 -42.2807 239° Southwest  Level Estimated
Mon 10:51:00 AM 55.0120 -42.4663 239° Southwest  Level Estimated
Mon 10:52:00 AM 54.9482 -42.6513 239° Southwest  Level Estimated
Mon 10:53:00 AM 54.8841 -42.8358 239° Southwest  Level Estimated
Mon 10:54:00 AM 54.8197 -43.0196 239° Southwest  Level Estimated
Mon 10:55:00 AM 54.7550 -43.2029 239° Southwest  Level Estimated
Mon 10:56:00 AM 54.6900 -43.3856 238° Southwest  Level Estimated
Mon 10:57:00 AM 54.6248 -43.5677 238° Southwest  Level Estimated
Mon 10:58:00 AM 54.5593 -43.7492 238° Southwest  Level Estimated
Mon 10:59:00 AM 54.4935 -43.9302 238° Southwest  Level Estimated
Mon 11:00:00 AM 54.4275 -44.1105 238° Southwest  Level Estimated
Mon 11:01:00 AM 54.3612 -44.2903 238° Southwest  Level Estimated
Mon 11:02:00 AM 54.2946 -44.4695 238° Southwest  Level Estimated
Mon 11:02:17 AM 63.1833 -54.9000 237° Southwest 450 518 38,000  Level Gander Center
Mon 11:03:00 AM 54.2278 -44.6481 237° Southwest  Level Estimated
Mon 11:03:17 AM 63.1500 -55.1167 251° West 460 529 38,000  Level Gander Center
Mon 11:04:00 AM 54.1607 -44.8261 237° Southwest  Level Estimated
Mon 11:04:17 AM 63.0667 -55.4333 240° Southwest 470 541 38,000  Level Gander Center
Mon 11:05:00 AM 54.0933 -45.0036 237° Southwest  Level Estimated
Mon 11:05:17 AM 63.0167 -55.6667 245° Southwest 480 552 38,000  Level Gander Center
Mon 11:06:00 AM 54.0244 -45.1838 237° Southwest  Level Estimated
Mon 11:06:17 AM 62.9667 -55.9167 246° West 470 541 38,000  Level Gander Center
Mon 11:07:00 AM 53.9552 -45.3633 237° Southwest  Level Estimated
Mon 11:07:17 AM 62.9167 -56.1833 248° West 470 541 38,000  Level Gander Center
Mon 11:08:17 AM 62.8667 -56.4500 248° West 480 552 38,000  Level Gander Center
Mon 11:09:17 AM 62.8000 -56.7167 241° Southwest 480 552 38,000  Level Gander Center
Mon 11:10:17 AM 62.7333 -56.9333 236° Southwest 480 552 38,000  Level Gander Center
Mon 11:11:17 AM 62.6833 -57.2333 250° West 480 552 38,000  Level Gander Center
Mon 11:12:17 AM 62.6333 -57.4667 245° Southwest 480 552 38,000  Level Gander Center
Mon 11:13:17 AM 62.5833 -57.7167 247° West 480 552 38,000  Level Gander Center
Mon 11:14:17 AM 62.5333 -57.9833 248° West 470 541 38,000  Level Gander Center
Mon 11:15:17 AM 62.4667 -58.2333 240° Southwest 470 541 38,000  Level Gander Center
Mon 11:16:17 AM 62.3833 -58.4500 230° Southwest 480 552 38,000  Level Gander Center
Mon 11:17:17 AM 62.3000 -58.6833 233° Southwest 480 552 38,000  Level Gander Center
Mon 11:18:17 AM 62.2167 -58.9333 235° Southwest 480 552 38,000  Level Gander Center
Mon 11:19:17 AM 62.1500 -59.1500 237° Southwest 470 541 38,000  Level Gander Center
Mon 11:20:17 AM 62.0667 -59.3667 231° Southwest 470 541 38,000  Level Gander Center
Mon 11:21:17 AM 61.9833 -59.5833 231° Southwest 470 541 38,000  Level Gander Center
Mon 11:22:17 AM 61.9000 -59.8000 231° Southwest 470 541 38,000  Level Gander Center
Mon 11:23:17 AM 61.8167 -60.0167 231° Southwest 470 541 38,000  Level Gander Center
Mon 11:24:17 AM 61.7333 -60.2333 231° Southwest 470 541 38,000  Level Gander Center
Mon 11:25:17 AM 61.6667 -60.4833 241° Southwest 480 552 38,000  Level Gander Center
Mon 11:26:17 AM 61.5833 -60.6833 229° Southwest 480 552 38,000  Level Gander Center
Mon 11:27:17 AM 61.5000 -60.9000 231° Southwest 480 552 38,000  Level Gander Center
Mon 11:28:17 AM 61.4167 -61.1167 231° Southwest 480 552 38,000  Level Gander Center
Mon 11:29:17 AM 61.3167 -61.3500 228° Southwest 470 541 38,000  Level Gander Center
Mon 11:30:17 AM 61.2333 -61.5500 229° Southwest 480 552 38,000  Level Gander Center
Mon 11:31:17 AM 61.1500 -61.7667 231° Southwest 480 552 38,000  Level Gander Center
Mon 11:32:17 AM 61.0833 -61.9667 235° Southwest 480 552 38,000  Level Gander Center
Mon 11:33:17 AM 61.0000 -62.1667 229° Southwest 480 552 38,000  Level Gander Center
Mon 11:34:17 AM 60.9000 -62.4167 231° Southwest 480 552 38,000  Level Gander Center
Mon 11:35:17 AM 60.8167 -62.6167 230° Southwest 480 552 38,000  Level Gander Center
Mon 11:36:17 AM 60.7000 -62.8167 220° Southwest 480 552 38,000  Level Gander Center
Mon 11:37:17 AM 60.6167 -63.0167 230° Southwest 480 552 38,000  Level Gander Center
Mon 11:38:17 AM 60.5167 -63.2000 222° Southwest 480 552 38,000  Level Gander Center
Mon 11:39:17 AM 60.4333 -63.3667 225° Southwest 470 541 38,000  Level Gander Center
Mon 11:40:17 AM 60.3500 -63.5667 230° Southwest 470 541 38,000  Level Gander Center
Mon 11:41:17 AM 60.2500 -63.7333 220° Southwest 470 541 38,000  Level Gander Center
Mon 11:42:17 AM 60.1500 -63.9167 222° Southwest 470 541 38,000  Level Gander Center
Mon 11:43:17 AM 60.0500 -64.1167 225° Southwest 470 541 38,000  Level Gander Center
Mon 11:44:17 AM 59.9667 -64.2667 222° Southwest 470 541 38,000  Level Gander Center
Mon 11:45:17 AM 59.8667 -64.4667 225° Southwest 470 541 38,000  Level Gander Center
Mon 11:46:17 AM 59.7833 -64.6500 228° Southwest 470 541 38,000  Level Gander Center
Mon 11:47:17 AM 59.6667 -64.8333 218° Southwest 470 541 38,000  Level Gander Center
Mon 11:48:17 AM 59.5833 -65.0000 225° Southwest 470 541 38,000  Level Gander Center
Mon 11:49:17 AM 59.4833 -65.1833 223° Southwest 470 541 38,000  Level Gander Center
Mon 11:50:17 AM 59.4000 -65.3333 223° Southwest 470 541 38,000  Level Gander Center
Mon 11:51:17 AM 59.2833 -65.5167 219° Southwest 470 541 38,000  Level Gander Center
Mon 11:52:17 AM 59.2000 -65.6667 223° Southwest 470 541 38,000  Level Gander Center
Mon 11:53:17 AM 59.1167 -65.8500 229° Southwest 470 541 38,000  Level Gander Center
Mon 11:54:17 AM 59.0000 -66.0333 219° Southwest 470 541 38,000  Level Gander Center
Mon 11:55:17 AM 58.9167 -66.1833 223° Southwest 470 541 38,000  Level Gander Center
Mon 11:56:17 AM 58.8000 -66.3667 219° Southwest 470 541 38,000  Level Gander Center
Mon 11:57:17 AM 58.7167 -66.5500 229° Southwest 470 541 38,000  Level Gander Center
Mon 11:58:17 AM 58.6167 -66.7167 221° Southwest 470 541 38,000  Level Gander Center
Mon 11:59:17 AM 58.5167 -66.8667 218° Southwest 470 541 38,000  Level Gander Center
Mon 12:00:17 PM 58.4167 -67.0500 224° Southwest 470 541 38,000  Level Gander Center
Mon 12:01:17 PM 58.3167 -67.1833 215° Southwest 470 541 38,000  Level Gander Center
Mon 12:02:17 PM 58.2333 -67.3667 229° Southwest 470 541 38,000  Level Gander Center
Mon 12:03:17 PM 58.1167 -67.5333 217° Southwest 470 541 38,000  Level Gander Center
Mon 12:04:17 PM 58.0333 -67.6833 224° Southwest 470 541 38,000  Level Gander Center
Mon 12:05:17 PM 57.9167 -67.8500 217° Southwest 470 541 38,000  Level Gander Center
Mon 12:06:17 PM 57.8333 -67.9833 220° Southwest 470 541 38,000  Level Gander Center
Mon 12:07:17 PM 57.7333 -68.1667 224° Southwest 470 541 38,000  Level Gander Center
Mon 12:08:17 PM 57.6333 -68.3000 216° Southwest 470 541 38,000  Level Gander Center
Mon 12:09:17 PM 57.5333 -68.4667 222° Southwest 460 529 38,000  Level Gander Center
Mon 12:10:17 PM 57.4333 -68.6000 216° Southwest 460 529 38,000  Level Gander Center
Mon 12:11:17 PM 57.3333 -68.7667 222° Southwest 470 541 38,000  Level Gander Center
Mon 12:12:17 PM 57.2500 -68.9333 227° Southwest 470 541 38,000  Level Gander Center
Mon 12:13:17 PM 57.1333 -69.0667 212° Southwest 460 529 38,000  Level Gander Center
Mon 12:14:17 PM 57.0500 -69.2000 221° Southwest 460 529 38,000  Level Gander Center
Mon 12:15:17 PM 56.9500 -69.3667 222° Southwest 460 529 38,000  Level Gander Center
Mon 12:16:17 PM 56.8333 -69.5333 218° Southwest 460 529 38,000  Level Gander Center
Mon 12:17:39 PM 56.7167 -69.6667 212° Southwest 450 518 38,000  Level Montreal Center
Mon 12:18:39 PM 56.6167 -69.8167 220° Southwest 450 518 38,000  Level Montreal Center
Mon 12:19:39 PM 56.5167 -69.9833 223° Southwest 450 518 38,000  Level Montreal Center
Mon 12:20:39 PM 56.4167 -70.1167 216° Southwest 450 518 38,000  Level Montreal Center
Mon 12:21:39 PM 56.3167 -70.2500 217° Southwest 460 529 38,000  Level Montreal Center
Mon 12:22:39 PM 56.2333 -70.3833 222° Southwest 460 529 38,000  Level Montreal Center
Mon 12:23:39 PM 56.1167 -70.5167 213° Southwest 460 529 38,000  Level Montreal Center
Mon 12:24:39 PM 56.0167 -70.6833 223° Southwest 450 518 38,000  Level Montreal Center
Mon 12:25:39 PM 55.9333 -70.8167 222° Southwest 450 518 38,000  Level Montreal Center
Mon 12:26:39 PM 55.8167 -70.9500 213° Southwest 460 529 38,000  Level Montreal Center
Mon 12:27:39 PM 55.7167 -71.0833 217° Southwest 450 518 38,000  Level Montreal Center
Mon 12:28:39 PM 55.6167 -71.2167 217° Southwest 460 529 38,000  Level Montreal Center
Mon 12:29:39 PM 55.5167 -71.3833 223° Southwest 460 529 38,000  Level Montreal Center
Mon 12:30:39 PM 55.4167 -71.5167 217° Southwest 460 529 38,000  Level Montreal Center
Mon 12:31:39 PM 55.3167 -71.6333 214° Southwest 460 529 38,000  Level Montreal Center
Mon 12:32:39 PM 55.2000 -71.7667 213° Southwest 460 529 38,000  Level Montreal Center
Mon 12:33:39 PM 55.1000 -71.9333 224° Southwest 460 529 38,000  Level Montreal Center
Mon 12:34:39 PM 55.0000 -72.0500 214° Southwest 460 529 38,000  Level Montreal Center
Mon 12:35:39 PM 54.9000 -72.1833 217° Southwest 460 529 38,000  Level Montreal Center
Mon 12:36:39 PM 54.8000 -72.3333 221° Southwest 460 529 38,000  Level Montreal Center
Mon 12:37:39 PM 54.6833 -72.4667 213° Southwest 460 529 38,000  Level Montreal Center
Mon 12:38:39 PM 54.5833 -72.5833 214° Southwest 460 529 38,000  Level Montreal Center
Mon 12:39:39 PM 54.4833 -72.7167 218° Southwest 450 518 38,000  Level Montreal Center
Mon 12:40:39 PM 54.4000 -72.8333 219° Southwest 450 518 38,000  Level Montreal Center
Mon 12:41:39 PM 54.2833 -73.0000 220° Southwest 450 518 38,000  Level Montreal Center
Mon 12:42:39 PM 54.1833 -73.1167 214° Southwest 460 529 38,000  Level Montreal Center
Mon 12:43:39 PM 54.0833 -73.2333 214° Southwest 460 529 38,000  Level Montreal Center
Mon 12:44:39 PM 53.9833 -73.3500 214° Southwest 450 518 38,000  Level Montreal Center
Mon 12:45:39 PM 53.8667 -73.4833 214° Southwest 460 529 38,000  Level Montreal Center
Mon 12:46:39 PM 53.7667 -73.6333 222° Southwest 460 529 38,000  Level Montreal Center
Mon 12:47:39 PM 53.6500 -73.7500 211° Southwest 460 529 38,000  Level Montreal Center
Mon 12:48:39 PM 53.5333 -73.8333 203° Southwest 460 529 38,000  Level Montreal Center
Mon 12:49:39 PM 53.4167 -73.9333 207° Southwest 460 529 38,000  Level Montreal Center
Mon 12:50:39 PM 53.3000 -74.0167 203° Southwest 450 518 38,000  Level Montreal Center
Mon 12:51:39 PM 53.2000 -74.1000 207° Southwest 460 529 38,000  Level Montreal Center
Mon 12:52:39 PM 53.0833 -74.2333 214° Southwest 460 529 38,000  Level Montreal Center
Mon 12:53:39 PM 52.9667 -74.3167 203° Southwest 460 529 38,000  Level Montreal Center
Mon 12:54:39 PM 52.8667 -74.4000 207° Southwest 460 529 38,000  Level Montreal Center
Mon 12:55:39 PM 52.7333 -74.4833 201° Southwest 460 529 38,000  Level Montreal Center
Mon 12:56:39 PM 52.6167 -74.5833 208° Southwest 460 529 38,000  Level Montreal Center
Mon 12:57:39 PM 52.5167 -74.7000 215° Southwest 460 529 38,000  Level Montreal Center
Mon 12:58:39 PM 52.3833 -74.7833 201° Southwest 450 518 38,000  Level Montreal Center
Mon 12:59:39 PM 52.2833 -74.8667 207° Southwest 430 495 38,000  Level Montreal Center
Mon 01:00:39 PM 52.1667 -74.9500 204° Southwest 440 506 38,000  Level Montreal Center
Mon 01:01:39 PM 52.0667 -75.0333 207° Southwest 430 495 38,000  Level Montreal Center
Mon 01:02:39 PM 51.9500 -75.1167 204° Southwest 440 506 38,000  Level Montreal Center
Mon 01:03:39 PM 51.8333 -75.2000 204° Southwest 430 495 38,000  Level Montreal Center
Mon 01:04:39 PM 51.7333 -75.2833 207° Southwest 430 495 38,000  Level Montreal Center
Mon 01:05:39 PM 51.6167 -75.3667 204° Southwest 430 495 38,000  Level Montreal Center
Mon 01:06:39 PM 51.5167 -75.4500 207° Southwest 440 506 38,000  Level Montreal Center
Mon 01:07:39 PM 51.4000 -75.5667 212° Southwest 440 506 38,000  Level Montreal Center
Mon 01:08:39 PM 51.3000 -75.6500 208° Southwest 440 506 38,000  Level Montreal Center
Mon 01:09:39 PM 51.1833 -75.7000 195° South 440 506 38,000  Level Montreal Center
Mon 01:10:39 PM 51.0667 -75.8000 208° Southwest 440 506 38,000  Level Montreal Center
Mon 01:11:39 PM 50.9667 -75.8833 208° Southwest 440 506 38,000  Level Montreal Center
Mon 01:12:39 PM 50.8500 -75.9667 204° Southwest 440 506 38,000  Level Montreal Center
Mon 01:13:39 PM 50.7333 -76.0500 204° Southwest 440 506 38,000  Level Montreal Center
Mon 01:14:39 PM 50.6167 -76.1167 200° South 440 506 38,000  Level Montreal Center
Mon 01:15:39 PM 50.5167 -76.2000 208° Southwest 440 506 38,000  Level Montreal Center
Mon 01:16:39 PM 50.4000 -76.2833 204° Southwest 440 506 38,000  Level Montreal Center
Mon 01:17:39 PM 50.3000 -76.3667 208° Southwest 440 506 38,000  Level Montreal Center
Mon 01:18:39 PM 50.1833 -76.4667 209° Southwest 440 506 38,000  Level Montreal Center
Mon 01:19:39 PM 50.0500 -76.5500 202° Southwest 440 506 38,000  Level Montreal Center
Mon 01:20:39 PM 49.9500 -76.6167 203° Southwest 440 506 38,000  Level Montreal Center
Mon 01:21:39 PM 49.8333 -76.7000 205° Southwest 440 506 38,000  Level Montreal Center
Mon 01:22:39 PM 49.7333 -76.7667 203° Southwest 440 506 38,000  Level Montreal Center
Mon 01:23:39 PM 49.6167 -76.8500 205° Southwest 440 506 38,000  Level Montreal Center
Mon 01:24:39 PM 49.5167 -76.9167 203° Southwest 420 483 38,000  Level Montreal Center
Mon 01:25:39 PM 49.3833 -77.0000 202° Southwest 460 529 38,000  Level Montreal Center
Mon 01:26:39 PM 49.2833 -77.0667 204° Southwest 440 506 38,000  Level Montreal Center
Mon 01:27:39 PM 49.1667 -77.1500 205° Southwest 440 506 38,000  Level Montreal Center
Mon 01:28:39 PM 49.0500 -77.2167 201° Southwest 450 518 38,000  Level Montreal Center
Mon 01:29:39 PM 48.9167 -77.3167 206° Southwest 440 506 38,000  Level Montreal Center
Mon 01:30:39 PM 48.8167 -77.4000 209° Southwest 440 506 38,000  Level Montreal Center
Mon 01:31:39 PM 48.7167 -77.4667 204° Southwest 440 506 38,000  Level Montreal Center
Mon 01:32:39 PM 48.6000 -77.5500 205° Southwest 440 506 38,000  Level Montreal Center
Mon 01:33:39 PM 48.5000 -77.6167 204° Southwest 440 506 38,000  Level Montreal Center
Mon 01:34:39 PM 48.3833 -77.6833 201° Southwest 440 506 38,000  Level Montreal Center
Mon 01:35:39 PM 48.2667 -77.7667 205° Southwest 440 506 38,000  Level Montreal Center
Mon 01:36:39 PM 48.1500 -77.8333 201° Southwest 430 495 38,000  Level Montreal Center
Mon 01:37:39 PM 48.0500 -77.9000 204° Southwest 430 495 38,000  Level Montreal Center
Mon 01:38:39 PM 47.9167 -77.9667 199° South 440 506 38,000  Level Montreal Center
Mon 01:39:39 PM 47.8000 -78.0500 206° Southwest 440 506 38,000  Level Montreal Center
Mon 01:40:39 PM 47.7000 -78.0833 193° South 440 506 38,000  Level Montreal Center
Mon 01:41:39 PM 47.5833 -78.1500 201° Southwest 430 495 38,000  Level Montreal Center
Mon 01:42:39 PM 47.4833 -78.2333 209° Southwest 440 506 38,000  Level Montreal Center
Mon 01:43:39 PM 47.3667 -78.3000 201° Southwest 430 495 38,000  Level Montreal Center
Mon 01:44:39 PM 47.2500 -78.3667 201° Southwest 430 495 38,000  Level Montreal Center
Mon 01:45:39 PM 47.1500 -78.4167 199° South 430 495 38,000  Level Montreal Center
Mon 01:46:39 PM 47.0167 -78.4833 199° South 430 495 38,000  Level Montreal Center
Mon 01:47:39 PM 46.9167 -78.5500 204° Southwest 430 495 38,000  Level Montreal Center
Mon 01:53:09 PM 46.3077 -78.8805 201° Southwest 432 497 38,000  Level FlightAware ADS-B (CYYZ)
Mon 01:54:09 PM 46.1905 -78.9445 201° Southwest 433 498 38,000  Level FlightAware ADS-B (CYYZ)
Mon 01:54:39 PM 46.1319 -78.9763 201° Southwest 435 501 38,000  Level FlightAware ADS-B (CYYZ)
Mon 01:55:09 PM 46.0750 -79.0072 201° Southwest 435 501 38,000  Level FlightAware ADS-B (CYYZ)
Mon 01:55:39 PM 46.0193 -79.0374 201° Southwest 436 502 38,000  Level FlightAware ADS-B (CYYZ)
Mon 01:56:09 PM 45.9655 -79.0665 201° Southwest 437 503 38,000  Level FlightAware ADS-B (CYYZ)
Mon 01:56:39 PM 45.9052 -79.0989 201° Southwest 436 502 38,000  Level FlightAware ADS-B (CYYZ)
Mon 01:57:09 PM 45.8550 -79.1258 201° Southwest 436 502 38,000  Level FlightAware ADS-B (CYYZ)
Mon 01:57:39 PM 45.7947 -79.1581 201° Southwest 435 501 38,000  Level FlightAware ADS-B (CYYZ)
Mon 01:58:09 PM 45.7371 -79.1889 201° Southwest 434 499 38,000  Level FlightAware ADS-B (CYYZ)
Mon 01:58:40 PM 45.6805 -79.2190 201° Southwest 432 497 38,000  Level FlightAware ADS-B (CYYZ)
Mon 01:59:09 PM 45.6245 -79.2490 201° Southwest 431 496 38,000  Level FlightAware ADS-B (CYYZ)
Mon 01:59:39 PM 45.5690 -79.2785 201° Southwest 431 496 38,000  Level FlightAware ADS-B (CYYZ)
Mon 02:00:09 PM 45.5175 -79.3059 201° Southwest 429 494 38,000  Level FlightAware ADS-B (CYYZ)
Mon 02:00:40 PM 45.4567 -79.3382 201° Southwest 429 494 38,000  Level FlightAware ADS-B (CYYZ)
Mon 02:01:09 PM 45.4031 -79.3665 201° Southwest 428 493 38,000  Level FlightAware ADS-B (CYYZ)
Mon 02:01:40 PM 45.3462 -79.3965 201° Southwest 428 493 38,000  Level FlightAware ADS-B (CYYZ)
Mon 02:02:09 PM 45.2921 -79.4250 201° Southwest 429 494 38,000  Level FlightAware ADS-B (CYYZ)
Mon 02:02:40 PM 45.2355 -79.4547 201° Southwest 428 493 38,000  Level FlightAware ADS-B (CYYZ)
Mon 02:03:09 PM 45.1799 -79.4837 201° Southwest 426 490 38,000  Level FlightAware ADS-B (CYYZ)
Mon 02:03:40 PM 45.1244 -79.5126 201° Southwest 427 491 38,000  Level FlightAware ADS-B (CYYZ)
Mon 02:04:09 PM 45.0689 -79.5416 201° Southwest 426 490 38,000  Level FlightAware ADS-B (CYYZ)
Mon 02:04:39 PM 45.0158 -79.5693 201° Southwest 426 490 38,000  Level FlightAware ADS-B (CYYZ)
Mon 02:04:54 PM 44.9855 -79.5852 200° South 425 489 38,000  Level FlightAware ADS-B (EPLB / LUZ)
Mon 02:05:07 PM 44.9645 -79.5960 201° Southwest 426 490 38,000  Level FlightAware ADS-B (CYYZ)
Mon 02:05:26 PM 44.9446 -79.6064 201° Southwest 427 491 38,000  Level FlightAware ADS-B (CYYZ)
Mon 02:05:59 PM 44.8651 -79.6476 200° South 425 489 38,000  Level FlightAware ADS-B (EPLB / LUZ)
Mon 02:06:39 PM 44.7977 -79.6823 201° Southwest 425 489 38,000  Level FlightAware ADS-B (CYYZ)
Mon 02:06:52 PM 44.7691 -79.6971 200° South 425 489 38,000  Level FlightAware ADS-B (EPLB / LUZ)
Mon 02:07:08 PM 44.7388 -79.7127 201° Southwest 426 490 38,000  Level FlightAware ADS-B (CYYZ)
Mon 02:07:33 PM 44.7050 -79.7302 200° South 425 489 38,000  Level FlightAware ADS-B (EPLB / LUZ)
Mon 02:07:39 PM 44.7223 -79.7212 201° Southwest 425 489 38,000  Level FlightAware ADS-B (CYYZ)
Mon 02:08:03 PM 44.6402 -79.7636 200° South 423 487 38,000  Level FlightAware ADS-B (EPLB / LUZ)
Mon 02:08:09 PM 44.6298 -79.7689 201° Southwest 423 487 38,000  Level FlightAware ADS-B (CYYZ)
Mon 02:08:43 PM 44.5672 -79.8076 208° Southwest 414 476 38,000  Level FlightAware ADS-B (CYYZ)
Mon 02:09:18 PM 44.5218 -79.8459 213° Southwest 405 466 38,000  Level FlightAware ADS-B (EPLB / LUZ)
Mon 02:09:34 PM 44.4883 -79.8769 214° Southwest 405 466 38,000  Level FlightAware ADS-B (CYYZ)
Mon 02:10:04 PM 44.4408 -79.9204 214° Southwest 406 467 38,000  Level FlightAware ADS-B (CYYZ)
Mon 02:10:31 PM 44.4121 -79.9464 213° Southwest 406 467 38,000  Level FlightAware ADS-B (EPLB / LUZ)
Mon 02:10:34 PM 44.3916 -79.9649 213° Southwest 407 468 38,000  Level FlightAware ADS-B (CYYZ)
Mon 02:11:04 PM 44.3447 -80.0070 213° Southwest 410 472 38,000  Level FlightAware ADS-B (CYYZ)
Mon 02:11:11 PM 44.3378 -80.0132 213° Southwest 409 471 38,000  Level FlightAware ADS-B (EPLB / LUZ)
Mon 02:11:35 PM 44.2964 -80.0503 213° Southwest 412 474 38,000  Level FlightAware ADS-B (CYYZ)
Mon 02:11:43 PM 44.2858 -80.0598 213° Southwest 410 472 38,000  Level FlightAware ADS-B (EPLB / LUZ)
Mon 02:12:04 PM 44.2487 -80.0931 213° Southwest 413 475 38,000  Level FlightAware ADS-B (CYYZ)
Mon 02:12:34 PM 44.2008 -80.1358 213° Southwest 413 475 38,000  Level FlightAware ADS-B (CYYZ)
Mon 02:12:46 PM 44.1828 -80.1518 213° Southwest 412 474 38,000  Level FlightAware ADS-B (CYKF)
Mon 02:13:05 PM 44.1520 -80.1792 213° Southwest 412 474 38,000  Level FlightAware ADS-B (CYYZ)
Mon 02:13:33 PM 44.1103 -80.2164 213° Southwest 411 473 38,000  Level FlightAware ADS-B (CYYZ)
Mon 02:13:34 PM 44.1103 -80.2164 213° Southwest 411 473 38,000  Level FlightAware ADS-B (EPLB / LUZ)
Mon 02:14:04 PM 44.0565 -80.2642 213° Southwest 412 474 38,000  Level FlightAware ADS-B (CYYZ)
Mon 02:14:09 PM 44.0493 -80.2706 213° Southwest 412 474 38,000  Level FlightAware ADS-B (EPLB / LUZ)
Mon 02:14:35 PM 44.0097 -80.3057 213° Southwest 412 474 38,000  Level FlightAware ADS-B (CYYZ)
Mon 02:14:47 PM 43.9888 -80.3241 212° Southwest 412 474 38,000  Level FlightAware ADS-B (CYKF)
Mon 02:15:04 PM 43.9635 -80.3464 213° Southwest 412 474 38,000  Level FlightAware ADS-B (CYYZ)
Mon 02:15:21 PM 43.9333 -80.3730 213° Southwest 412 474 38,000  Level FlightAware ADS-B (CZBA)
Mon 02:15:33 PM 43.9162 -80.3881 213° Southwest 412 474 38,000  Level FlightAware ADS-B (CYYZ)
Mon 02:16:04 PM 43.8653 -80.4330 213° Southwest 412 474 38,000  Level FlightAware ADS-B (CYYZ)
Mon 02:16:31 PM 43.8215 -80.4715 213° Southwest 413 475 38,000  Level FlightAware ADS-B (CYYZ)
Mon 02:16:38 PM 43.8527 -80.4441 213° Southwest 411 473 38,000  Level FlightAware ADS-B (EPLB / LUZ)
Mon 02:17:04 PM 43.7677 -80.5186 213° Southwest 411 473 38,000  Level FlightAware ADS-B (CYYZ)
Mon 02:17:17 PM 43.7509 -80.5333 212° Southwest 410 472 38,000  Level FlightAware ADS-B
Mon 02:17:34 PM 43.7204 -80.5601 213° Southwest 409 471 38,000  Level FlightAware ADS-B (CYYZ)
Mon 02:17:52 PM 43.6935 -80.5835 212° Southwest 406 467 38,000  Level FlightAware ADS-B (CZBA)
Mon 02:18:03 PM 43.6754 -80.5994 213° Southwest 406 467 38,000  Level FlightAware ADS-B (CYYZ)
Mon 02:18:32 PM 43.6504 -80.6212 212° Southwest 405 466 38,000  Level FlightAware ADS-B (EPLB / LUZ)
Mon 02:19:02 PM 43.6063 -80.6598 213° Southwest 407 468 38,000  Level FlightAware ADS-B (CYYZ)
Mon 02:19:03 PM 43.5806 -80.6821 212° Southwest 406 467 38,000  Level FlightAware ADS-B (EPLB / LUZ)
Mon 02:19:32 PM 43.5363 -80.7205 213° Southwest 407 468 38,000  Level FlightAware ADS-B (CYYZ)
Mon 02:19:33 PM 43.5728 -80.6888 212° Southwest 407 468 38,000  Level FlightAware ADS-B (CYKF)
Mon 02:20:03 PM 43.4874 -80.7630 213° Southwest 409 471 38,000  Level FlightAware ADS-B (CYYZ)
Mon 02:20:07 PM 43.4793 -80.7701 212° Southwest 409 471 38,000  Level FlightAware ADS-B (EPLB / LUZ)
Mon 02:20:34 PM 43.4348 -80.8087 213° Southwest 412 474 38,000  Level FlightAware ADS-B (CYYZ)
Mon 02:20:43 PM 43.4200 -80.8214 212° Southwest 412 474 38,000  Level FlightAware ADS-B (CYKF)
Mon 02:21:04 PM 43.3855 -80.8511 213° Southwest 414 476 38,000  Level FlightAware ADS-B (CYYZ)
Mon 02:21:34 PM 43.3375 -80.8924 213° Southwest 415 478 38,000  Level FlightAware ADS-B (CYYZ)
Mon 02:21:41 PM 43.3382 -80.8918 212° Southwest 414 476 38,000  Level FlightAware ADS-B (EPLB / LUZ)
Mon 02:22:04 PM 43.2884 -80.9348 213° Southwest 415 478 38,000  Level FlightAware ADS-B (CYYZ)
Mon 02:22:21 PM 43.2659 -80.9540 212° Southwest 415 478 38,000  Level FlightAware ADS-B (EPLB / LUZ)
Mon 02:22:34 PM 43.2406 -80.9758 213° Southwest 415 478 38,000  Level FlightAware ADS-B (CYYZ)
Mon 02:22:52 PM 43.2143 -80.9983 212° Southwest 414 476 38,000  Level FlightAware ADS-B (EPLB / LUZ)
Mon 02:23:04 PM 43.1915 -81.0179 212° Southwest 415 478 38,000  Level FlightAware ADS-B (CYYZ)
Mon 02:23:32 PM 43.1457 -81.0570 212° Southwest 415 478 38,000  Level FlightAware ADS-B (EPLB / LUZ)
Mon 02:23:35 PM 43.1426 -81.0597 213° Southwest 416 479 38,000  Level FlightAware ADS-B (CYYZ)
Mon 02:24:05 PM 43.0930 -81.1021 213° Southwest 417 480 38,000  Level FlightAware ADS-B (CYYZ)
Mon 02:24:39 PM 43.0353 -81.1492 208° Southwest 424 488 38,000  Level FlightAware ADS-B (CYYZ)
Mon 02:24:44 PM 43.0390 -81.1466 207° Southwest 426 490 38,000  Level FlightAware ADS-B (EPLB / LUZ)
Mon 02:25:18 PM 42.9656 -81.1923 204° Southwest 429 494 38,000  Level FlightAware ADS-B (EPLB / LUZ)
Mon 02:25:30 PM 42.9464 -81.2043 205° Southwest 429 494 38,000  Level FlightAware ADS-B (CYYZ)
Mon 02:25:56 PM 42.9066 -81.2295 205° Southwest 427 491 38,000  Level FlightAware ADS-B (EPLB / LUZ)
Mon 02:26:00 PM 42.8916 -81.2389 205° Southwest 428 493 38,000  Level FlightAware ADS-B (CYYZ)
Mon 02:26:29 PM 42.8402 -81.2709 205° Southwest 429 494 38,000  Level FlightAware ADS-B (CYYZ)
Mon 02:26:32 PM 42.8453 -81.2678 204° Southwest 428 493 38,000  Level FlightAware ADS-B (EPLB / LUZ)
Mon 02:27:00 PM 42.7836 -81.3061 205° Southwest 429 494 38,000  Level FlightAware ADS-B (CYYZ)
Mon 02:27:30 PM 42.7301 -81.3391 205° Southwest 430 495 38,000  Level FlightAware ADS-B (CYYZ)
Mon 02:27:44 PM 42.7108 -81.3511 204° Southwest 430 495 38,000  Level FlightAware ADS-B (CYKF)
Mon 02:28:00 PM 42.6755 -81.3726 205° Southwest 432 497 38,000  Level FlightAware ADS-B (CYYZ)
Mon 02:28:28 PM 42.6244 -81.4039 204° Southwest 432 497 38,000  Level FlightAware ADS-B (EPLB / LUZ)
Mon 02:28:29 PM 42.6236 -81.4044 205° Southwest 433 498 38,000  Level FlightAware ADS-B (CYYZ)
Mon 02:29:00 PM 42.5676 -81.4385 205° Southwest 434 499 38,000  Level FlightAware ADS-B (CYYZ)
Mon 02:29:26 PM 42.5415 -81.4544 204° Southwest 434 499 38,000  Level FlightAware ADS-B (EPLB / LUZ)
Mon 02:29:30 PM 42.5122 -81.4722 205° Southwest 435 501 38,000  Level FlightAware ADS-B (CYYZ)
Mon 02:30:00 PM 42.4563 -81.5062 205° Southwest 437 503 38,000  Level FlightAware ADS-B (CYYZ)
Mon 02:30:02 PM 42.4504 -81.5097 204° Southwest 436 502 38,000  Level FlightAware ADS-B (EPLB / LUZ)
Mon 02:30:29 PM 42.4011 -81.5399 205° Southwest 437 503 38,000  Level FlightAware ADS-B (CYYZ)
Mon 02:31:00 PM 42.3458 -81.5734 205° Southwest 437 503 38,000  Level FlightAware ADS-B (CYYZ)
Mon 02:31:30 PM 42.2909 -81.6066 205° Southwest 437 503 38,000  Level FlightAware ADS-B (CYYZ)
Mon 02:31:35 PM 42.4685 -81.4988 204° Southwest 436 502 38,000  Level FlightAware ADS-B (CYKF)
Mon 02:32:00 PM 42.2356 -81.6400 205° Southwest 436 502 38,000  Level FlightAware ADS-B (CYYZ)
Mon 02:32:29 PM 42.1816 -81.6727 205° Southwest 436 502 38,000  Level FlightAware ADS-B (CYYZ)
Mon 02:33:00 PM 42.1263 -81.7059 205° Southwest 435 501 38,000  Level FlightAware ADS-B (CYYZ)
Mon 02:33:29 PM 42.0747 -81.7369 205° Southwest 435 501 38,000  Level FlightAware ADS-B (CYYZ)
Mon 02:33:59 PM 42.0187 -81.7703 204° Southwest 435 501 38,000  Level FlightAware ADS-B (CYYZ)
Mon 02:34:29 PM 41.9633 -81.8035 205° Southwest 435 501 38,000  Level FlightAware ADS-B (CYYZ)
Mon 02:35:00 PM 41.9059 -81.8380 205° Southwest 434 499 38,000  Level FlightAware ADS-B (CYYZ)
Mon 02:35:29 PM 41.8518 -81.8704 205° Southwest 435 501 38,000  Level FlightAware ADS-B (CYYZ)
Mon 02:36:00 PM 41.7974 -81.9029 205° Southwest 435 501 38,000  Level FlightAware ADS-B (CYYZ)
Mon 02:36:29 PM 41.7418 -81.9358 204° Southwest 436 502 38,000  Level FlightAware ADS-B (CYYZ)
Mon 02:36:58 PM 41.6989 -81.9612 204° Southwest 437 503 38,000  Level FlightAware ADS-B (CYYZ)
Mon 02:37:27 PM 41.6690 -81.9789 204° Southwest 438 504 38,000  Level FlightAware ADS-B (CYYZ)
Mon 02:37:59 PM 41.6048 -82.0168 204° Southwest 438 504 38,000  Level FlightAware ADS-B (CYYZ)
Mon 02:38:59 PM 41.4673 -82.0980 204° Southwest 438 504 38,000  Level FlightAware ADS-B (CYYZ)
Mon 02:39:29 PM 41.4093 -82.1321 204° Southwest 438 504 38,000  Level FlightAware ADS-B (CYYZ)
Mon 02:39:56 PM 41.3640 -82.1570 200° South 444 511 38,000  Level FlightAware ADS-B (CYYZ)
Mon 02:40:49 PM 41.2561 -82.1975 196° South 447 514 38,000  Level FlightAware ADS-B (CYYZ)
Mon 02:41:12 PM 41.2387 -82.2039 196° South 446 513 38,000  Level FlightAware ADS-B (CYYZ)
Mon 02:42:26 PM 41.0806 -82.2614 196° South 444 511 38,000  Level Indianapolis Center
Mon 02:43:27 PM 40.9608 -82.3031 195° South 444 511 38,000  Level Indianapolis Center
Mon 02:44:46 PM 40.8006 -82.3600 195° South 445 512 38,000  Level Cleveland Center
Mon 02:45:30 PM 40.7003 -82.3967 195° South 444 511 38,000  Level Indianapolis Center
Mon 02:46:32 PM 40.5783 -82.4394 195° South 445 512 38,000  Level Indianapolis Center
Mon 02:47:34 PM 40.4578 -82.4806 195° South 446 513 38,000  Level Indianapolis Center
Mon 02:53:15 PM 39.7602 -82.6150 183° South 454 522 38,000  Level FlightAware ADS-B
Mon 02:53:45 PM 39.6932 -82.6196 183° South 453 521 38,000  Level FlightAware ADS-B
Mon 02:54:18 PM 39.6245 -82.6241 183° South 449 517 38,000  Level FlightAware ADS-B
Mon 02:54:48 PM 39.5630 -82.6282 183° South 448 516 38,000  Level FlightAware ADS-B
Mon 02:55:20 PM 39.5088 -82.6318 183° South 448 516 38,000  Level FlightAware ADS-B
Mon 02:55:51 PM 39.4374 -82.6366 183° South 448 516 38,000  Level FlightAware ADS-B
Mon 02:56:33 PM 39.3464 -82.6427 183° South 447 514 38,000  Level FlightAware ADS-B
Mon 02:57:03 PM 39.2825 -82.6470 183° South 447 514 38,000  Level FlightAware ADS-B
Mon 02:57:45 PM 39.1954 -82.6528 183° South 447 514 38,000  Level FlightAware ADS-B
Mon 02:58:17 PM 39.1317 -82.6570 183° South 446 513 38,000  Level FlightAware ADS-B
Mon 02:58:56 PM 39.0518 -82.6623 183° South 445 512 38,000  Level FlightAware ADS-B
Mon 02:59:30 PM 38.9823 -82.6667 183° South 444 511 38,000  Level FlightAware ADS-B
Mon 03:00:00 PM 38.9234 -82.6706 183° South 443 510 38,000  Level FlightAware ADS-B
Mon 03:00:36 PM 38.8452 -82.6759 183° South 443 510 38,000  Level FlightAware ADS-B
Mon 03:01:07 PM 38.7824 -82.6800 183° South 443 510 38,000  Level FlightAware ADS-B
Mon 03:01:48 PM 38.6995 -82.6854 183° South 443 510 38,000  Level FlightAware ADS-B
Mon 03:02:28 PM 38.6172 -82.6909 183° South 445 512 38,000  Level FlightAware ADS-B
Mon 03:03:02 PM 38.5461 -82.6956 183° South 446 513 38,000  Level FlightAware ADS-B
Mon 03:03:59 PM 38.4500 -82.7008 183° South 444 511 38,000  Level Indianapolis Center
Mon 03:05:01 PM 38.3264 -82.7097 183° South 444 511 38,000  Level Indianapolis Center
Mon 03:06:02 PM 38.1831 -82.7189 183° South 444 511 38,000  Level Indianapolis Center
Mon 03:07:04 PM 38.0608 -82.7272 183° South 442 509 38,000  Level Indianapolis Center
Mon 03:08:05 PM 37.9392 -82.7358 183° South 441 507 38,000  Level Indianapolis Center
Mon 03:09:07 PM 37.8178 -82.7431 183° South 439 505 38,000  Level Indianapolis Center
Mon 03:10:09 PM 37.6958 -82.7583 186° South 439 505 38,000  Level Indianapolis Center
Mon 03:11:10 PM 37.5861 -82.8100 200° South 427 491 38,000  Level Indianapolis Center
Mon 03:13:14 PM 37.3647 -82.9575 208° Southwest 416 479 38,000  Level Indianapolis Center
Mon 03:14:15 PM 37.2617 -83.0253 208° Southwest 416 479 38,000  Level Indianapolis Center
Mon 03:15:17 PM 37.1589 -83.0922 207° Southwest 416 479 38,000  Level Indianapolis Center
Mon 03:16:18 PM 37.0569 -83.1583 207° Southwest 417 480 38,000  Level Indianapolis Center
Mon 03:17:20 PM 36.9550 -83.2247 207° Southwest 417 480 38,000  Level Indianapolis Center
Mon 03:18:22 PM 36.8350 -83.3011 207° Southwest 417 480 38,000  Level Indianapolis Center
Mon 03:19:23 PM 36.7311 -83.3683 207° Southwest 417 480 38,000  Level Indianapolis Center
Mon 03:20:25 PM 36.6269 -83.4350 207° Southwest 418 481 38,000  Level Indianapolis Center
Mon 03:21:27 PM 36.5222 -83.5017 207° Southwest 419 482 38,000  Level Indianapolis Center
Mon 03:22:28 PM 36.4131 -83.5719 207° Southwest 420 483 38,000  Level Indianapolis Center
Mon 03:23:30 PM 36.3089 -83.6375 207° Southwest 420 483 38,000  Level Indianapolis Center
Mon 03:24:32 PM 36.2053 -83.7044 208° Southwest 420 483 38,000  Level Indianapolis Center
Mon 03:25:22 PM 36.1183 -83.7611 208° Southwest 424 488 38,000  Level Atlanta Center
Mon 03:31:13 PM 35.3761 -84.0231 191° South 443 510 38,000  Level FlightAware ADS-B (KDZJ)
Mon 03:31:52 PM 35.2965 -84.0423 191° South 444 511 38,000  Level FlightAware ADS-B (KDZJ)
Mon 03:32:23 PM 35.2345 -84.0572 191° South 444 511 38,000  Level FlightAware ADS-B (KDZJ)
Mon 03:32:55 PM 35.1709 -84.0724 191° South 444 511 38,000  Level FlightAware ADS-B (KDZJ)
Mon 03:33:34 PM 35.0905 -84.0916 191° South 444 511 38,000  Level FlightAware ADS-B (KDZJ)
Mon 03:34:13 PM 35.0122 -84.1103 191° South 444 511 38,000  Level FlightAware ADS-B (KDZJ)
Mon 03:34:54 PM 34.9300 -84.1299 191° South 444 511 38,000  Level FlightAware ADS-B (KDZJ)
Mon 03:35:34 PM 34.8481 -84.1494 191° South 445 512 38,000  Level FlightAware ADS-B (KDZJ)
Mon 03:36:10 PM 34.7764 -84.1664 191° South 445 512 38,000  Level FlightAware ADS-B (KDZJ)
Mon 03:36:47 PM 34.7012 -84.1843 191° South 446 513 38,000  Level FlightAware ADS-B (KDZJ)
Mon 03:37:35 PM 34.6053 -84.2069 191° South 445 512 38,000  Level FlightAware ADS-B (KDZJ)
Mon 03:38:11 PM 34.5314 -84.2244 191° South 445 512 38,000  Level FlightAware ADS-B (KDZJ)
Mon 03:39:14 PM 34.4062 -84.2538 191° South 423 487 38,000  Level FlightAware ADS-B (KDZJ)
Mon 03:39:55 PM 34.3303 -84.2716 191° South 413 475 38,000  Level FlightAware ADS-B (KDZJ)
Mon 03:40:34 PM 34.2552 -84.2895 191° South 409 471 38,000  Level FlightAware ADS-B (KDZJ)
Mon 03:41:15 PM 34.1776 -84.3076 191° South 423 487 38,000  Level FlightAware ADS-B (KDZJ)
Mon 03:41:54 PM 34.1022 -84.3253 191° South 426 490 38,000  Level FlightAware ADS-B (KDZJ)
Mon 03:42:35 PM 34.0238 -84.3435 191° South 426 490 38,000 150 Level FlightAware ADS-B (KDZJ)
Mon 03:43:14 PM 33.9468 -84.3614 191° South 429 494 38,200 280 Climbing FlightAware ADS-B (KDZJ)
Mon 03:44:22 PM 33.8753 -84.3792 191° South 434 499 38,500 375 Climbing Atlanta Center
Mon 03:45:22 PM 33.7811 -84.4011 191° South 440 506 39,000 250 Climbing Atlanta Center
Mon 03:46:22 PM 33.6369 -84.4331 190° South 440 506 39,000  Level Atlanta Center
Mon 03:47:22 PM 33.5097 -84.4350 181° South 456 525 39,000  Level Atlanta Center
Mon 03:48:22 PM 33.3844 -84.4344 180° South 454 522 39,000  Level Atlanta Center
Mon 03:49:22 PM 33.2614 -84.4339 180° South 454 522 39,000  Level Atlanta Center
Mon 03:50:22 PM 33.1383 -84.4308 179° South 444 511 39,000  Level Atlanta Center
Mon 03:51:22 PM 33.0317 -84.4278 179° South 439 505 39,000  Level Atlanta Center
Mon 03:52:22 PM 32.9064 -84.4272 180° South 439 505 39,000  Level Atlanta Center
Mon 03:53:22 PM 32.7750 -84.4192 177° South 439 505 39,000  Level Atlanta Center
Mon 03:54:22 PM 32.6519 -84.4164 179° South 439 505 39,000  Level Atlanta Center
Mon 03:55:22 PM 32.5289 -84.4133 179° South 439 505 39,000  Level Atlanta Center
Mon 03:56:22 PM 32.4078 -84.4128 180° South 439 505 39,000  Level Atlanta Center
Mon 03:57:22 PM 32.2886 -84.4097 179° South 439 505 39,000  Level Atlanta Center
Mon 03:58:22 PM 32.1636 -84.4069 179° South 439 505 39,000  Level Atlanta Center
Mon 03:59:01 PM 32.0992 -84.4033 177° South 439 505 39,000  Level Jacksonville Center
Mon 04:00:01 PM 31.9800 -84.4039 180° South 444 511 39,000  Level Jacksonville Center
Mon 04:01:01 PM 31.8611 -84.3994 178° South 438 504 39,000  Level Jacksonville Center
Mon 04:06:50 PM 31.1595 -84.3857 179° South 424 488 39,000  Level FlightAware ADS-B (KONZ)
Mon 04:07:29 PM 31.0826 -84.3842 179° South 422 486 39,000  Level FlightAware ADS-B (KONZ)
Mon 04:08:17 PM 30.9881 -84.3823 179° South 421 484 39,000  Level FlightAware ADS-B (KONZ)
Mon 04:08:47 PM 30.9375 -84.3813 179° South 420 483 39,000  Level FlightAware ADS-B (KONZ)
Mon 04:09:39 PM 30.8342 -84.3794 179° South 421 484 39,000  Level FlightAware ADS-B (KONZ)
Mon 04:10:11 PM 30.7686 -84.3781 179° South 424 488 39,000  Level FlightAware ADS-B
Mon 04:10:45 PM 30.6989 -84.3764 178° South 430 495 39,000  Level FlightAware ADS-B
Mon 04:10:48 PM 30.6947 -84.3762 175° South 435 501 39,000  Level FlightAware ADS-B (KONZ)
Mon 04:11:06 PM 30.6562 -84.3723 173° South 437 503 39,000  Level FlightAware ADS-B (KONZ)
Mon 04:11:36 PM 30.5963 -84.3608 168° South 447 514 39,000  Level FlightAware ADS-B
Mon 04:12:16 PM 30.5158 -84.3344 161° South 463 533 39,000  Level FlightAware ADS-B
Mon 04:12:49 PM 30.4485 -84.3017 155° Southeast 475 547 39,000  Level FlightAware ADS-B (KONZ)
Mon 04:13:30 PM 30.3695 -84.2511 150° Southeast 485 558 39,000  Level FlightAware ADS-B (KONZ)
Mon 04:14:08 PM 30.2936 -84.2016 151° Southeast 486 559 39,000  Level FlightAware ADS-B (KONZ)
Mon 04:14:38 PM 30.2354 -84.1637 151° Southeast 487 560 39,000  Level FlightAware ADS-B (KONZ)
Mon 04:15:19 PM 30.1617 -84.1157 150° Southeast 489 563 39,000  Level FlightAware ADS-B (KONZ)
Mon 04:15:57 PM 30.0825 -84.0642 151° Southeast 490 564 39,000  Level FlightAware ADS-B (KONZ)
Mon 04:16:33 PM 30.0126 -84.0188 151° Southeast 492 566 39,000  Level FlightAware ADS-B (KONZ)
Mon 04:17:38 PM 29.9610 -83.9853 151° Southeast 494 568 39,000  Level FlightAware ADS-B (KONZ)
Mon 04:18:53 PM 29.7309 -83.8365 151° Southeast 491 565 39,000  Level FlightAware ADS-B (KONZ)
Mon 04:20:01 PM 29.6164 -83.7644 151° Southeast 494 568 39,000  Level Jacksonville Center
Mon 04:21:01 PM 29.4978 -83.6894 151° Southeast 489 563 39,000  Level Jacksonville Center
Mon 04:22:01 PM 29.3792 -83.6122 150° Southeast 489 563 39,000  Level Jacksonville Center
Mon 04:23:01 PM 29.2606 -83.5472 154° Southeast 478 550 39,000  Level Jacksonville Center
Mon 04:24:01 PM 29.1378 -83.4917 158° South 478 550 39,000  Level Jacksonville Center
Mon 04:29:49 PM 28.4087 -83.1531 158° South 478 550 39,000  Level FlightAware ADS-B
Mon 04:30:37 PM 28.3100 -83.1078 158° South 480 552 39,000  Level FlightAware ADS-B
Mon 04:31:32 PM 28.1959 -83.0558 158° South 482 555 39,000  Level FlightAware ADS-B
Mon 04:34:12 PM 27.8663 -82.9058 158° South 478 550 39,000  Level FlightAware ADS-B
Mon 04:34:51 PM 27.7872 -82.8611 152° Southeast 489 563 39,000  Level FlightAware ADS-B
Mon 04:35:32 PM 27.7060 -82.8120 152° Southeast 488 562 39,000  Level FlightAware ADS-B
Mon 04:36:12 PM 27.6281 -82.7651 152° Southeast 483 556 39,000  Level FlightAware ADS-B
Mon 04:36:52 PM 27.5538 -82.7205 152° Southeast 481 554 39,000  Level FlightAware ADS-B
Mon 04:38:00 PM 27.4141 -82.6370 152° Southeast 481 554 39,000  Level FlightAware ADS-B
Mon 04:38:31 PM 27.3544 -82.6013 152° Southeast 483 556 39,000  Level FlightAware ADS-B
Mon 04:39:58 PM 27.1809 -82.4979 152° Southeast 484 557 39,000  Level FlightAware ADS-B
Mon 04:45:37 PM 26.5069 -82.0999 152° Southeast 488 562 39,000  Level FlightAware ADS-B
Mon 04:46:15 PM 26.4315 -82.0556 152° Southeast 487 560 39,000  Level FlightAware ADS-B
Mon 04:46:45 PM 26.3693 -82.0193 152° Southeast 487 560 39,000  Level FlightAware ADS-B
Mon 04:47:28 PM 26.2828 -81.9688 152° Southeast 486 559 39,000  Level FlightAware ADS-B
Mon 04:48:05 PM 26.2411 -81.9444 152° Southeast 487 560 39,000  Level FlightAware ADS-B
Mon 04:48:39 PM 26.1423 -81.8869 152° Southeast 486 559 39,000  Level FlightAware ADS-B
Mon 04:49:29 PM 26.0418 -81.8283 152° Southeast 486 559 39,000  Level FlightAware ADS-B
Mon 04:50:27 PM 25.9253 -81.7607 152° Southeast 486 559 39,000  Level FlightAware ADS-B
Mon 04:51:09 PM 25.8432 -81.7131 152° Southeast 486 559 39,000  Level FlightAware ADS-B
Mon 04:51:45 PM 25.8921 -81.7414 152° Southeast 485 558 39,000  Level FlightAware ADS-B
Mon 04:52:46 PM 25.8432 -81.7131 161° South 474 545 39,000  Level FlightAware ADS-B
Mon 04:54:07 PM 25.5205 -81.5711 170° South 462 532 39,000  Level FlightAware ADS-B
Mon 04:55:45 PM 25.2851 -81.5772 192° South 433 498 39,000 -153 Level FlightAware ADS-B
Mon 04:57:23 PM 25.0875 -81.6313 195° South 428 493 38,500 -629 Descending FlightAware ADS-B
Mon 04:59:15 PM 24.8862 -81.6893 195° South 427 491 36,800 -949 Descending FlightAware ADS-B
Mon 05:00:01 PM 24.8075 -81.7136 195° South 428 493 36,000 -1,029 Descending Miami Center
Mon 05:01:00 PM 24.6894 -81.7500 196° South 423 487 35,000 -950 Descending Miami Center
Mon 05:02:01 PM 24.5769 -81.8028 203° Southwest 436 502 34,100 -942 Descending Miami Center
Mon 05:03:01 PM 24.4781 -81.8831 216° Southwest 440 506 33,100 -1,000 Descending Miami Center
Mon 05:04:01 PM 24.4017 -81.9850 231° Southwest 426 490 32,100 -1,000 Descending Miami Center
Mon 05:05:01 PM 24.3228 -82.0864 230° Southwest 439 505 31,100 -1,400 Descending Miami Center
Mon 05:06:01 PM 24.2442 -82.1903 230° Southwest 446 513 29,300 -2,100 Descending Miami Center
Mon 05:07:01 PM 24.1653 -82.2939 230° Southwest 446 513 26,900 -2,400 Descending Miami Center
Mon 05:09:00 PM 24.0029 -82.4971 222° Southwest  Level FlightAware Approximate
Mon 05:16:00 PM 23.1418 -82.4167 180° South  Level FlightAware Approximate
Mon 05:17:00 PM 23.0170 -82.4000 180° South  Level FlightAware Approximate
Mon 05:18:00 PM 22.9891 -82.4091 180° South  Level Estimated
Mon 05:19:00 PM 22.9891 -82.4091 180° South  Level Estimated
Mon 05:20:00 PM 22.9891 -82.4091 180° South  Level Estimated
Mon 05:21:00 PM 22.9891 -82.4091 180° South  Level Estimated
Mon 05:22:00 PM 22.9891 -82.4091 180° South  Level Estimated
Mon 05:23:00 PM 22.9891 -82.4091 180° South  Level Estimated
Mon 05:24:00 PM 22.9891 -82.4091 180° South  Level Estimated
Mon 05:25:00 PM 22.9891 -82.4091 180° South  Level Estimated
Mon 05:26:00 PM 22.9891 -82.4091 180° South  Level Estimated
Mon 05:27:00 PM 22.9891 -82.4091 180° South  Level Estimated
Mon 05:28:00 PM 22.9891 -82.4091 180° South  Level Estimated
Mon 05:29:00 PM 22.9891 -82.4091 180° South  Level Estimated
Mon 05:30:00 PM 22.9891 -82.4091 180° South  Level Estimated
Mon 05:31:00 PM 22.9891 -82.4091 180° South  Level Estimated
Mon 05:32:00 PM 22.9891 -82.4091 180° South  Level Estimated
Mon 05:33:00 PM 22.9891 -82.4091 180° South  Level Estimated
Mon 05:34:00 PM 22.9891 -82.4091 180° South  Level Estimated
Mon 05:35:00 PM 22.9891 -82.4091 180° South  Level Estimated
Mon 05:36:00 PM 22.9891 -82.4091 180° South  Level Estimated
Mon 05:37:00 PM 22.9891 -82.4091 180° South  Level Estimated
Mon 05:38:00 PM 22.9891 -82.4091 180° South  Level Estimated
Mon 05:39:00 PM 22.9891 -82.4091 180° South  Level Estimated
Mon 05:40:00 PM 22.9891 -82.4091 180° South  Level Estimated

Login

Don't have an account? Register now (free) for customized features, flight alerts, and more!